Weather in Peretychikha

Russia / Primorsky Krai     47°11′04″N   138°37′59″E
temp.,
°C
wind,
m/s
gust,
m/s
humid.,
%
clouds,
%
prec.,
mm/h
press.,
hPa
HPBL,
m
9 may, sun
sun901:00+4ene129680 0.0 100452
04:00+4ne2696100 0.0 1003259
07:00+3ene2598100 0.1 1004315
10:00+3ne41095100 0.3 1004561
13:00+3ne51091100 0.4 1003618
16:00+3ene4795100 0.6 1003581
19:00+3ne31197100 3.2 1004606
22:00+3nnw1297100 6.4 1004111
10 may, mon
mon1001:00+3se0098100 2.6 100330
04:00+3s1198100 2.8 100333
07:00+4se0098100 0.9 100446
10:00+8e1383100 1.1 1005622
13:00+6se328791 0.1 1006327
16:00+4sse2290100 0.3 1008264
19:00+3sse1297100 1.2 1011162
22:00+3w1296100 1.4 1013118
11 may, tue
tue1101:00+4w1196100 0.1 101335
04:00+3ese1198100 0.6 101432
07:00+4se1299100 1.4 101691
10:00+4sse2296100 1.8 1018306
13:00+3s2293100 0.2 1019320
16:00+3s129297 0.3 1019281
19:00+4s128855 0.0 1020215
22:00+2wsw119286 0.0 102123
12 may, wed
wed1201:00+2wsw119380 0.0 102122
04:00+1sw11926 0.0 102115
07:00+3sw00890 0.0 1021100
10:00+8sse3376100 0.0 1020475
13:00+9s467086 0.0 1019597
16:00+7s5771100 0.0 1018522
19:00+4s3689100 0.0 1017357
22:00+4s2495100 0.1 1016277
13 may, thu
thu1301:00+4s1397100 0.0 1014191
04:00+4s1197100 0.4 101273
07:00+5w119437 0.5 1012139
10:00+11ssw24736 0.5 1011536
13:00+11sse446699 0.0 1009326
16:00+9s467565 0.1 1009161
19:00+8s12865 0.5 100869
22:00+9wnw1282100 0.6 100917